MINXSS-2 1 43758U 18099A 21016.46686766 .00000539 00000-0 53298-4 0 9991 2 43758 97.6851 90.6964 0015441 192.2490 167.8358 14.95875096115796 SIRION PATHFINDER-2 1 43759U 18099B 21016.63995206 .00000476 00000-0 48202-4 0 9992 2 43759 97.6845 90.4093 0013977 184.6907 175.4185 14.95411126115794 ELYSIUM STAR 2 & LFF 1 43760U 18099C 21016.57801972 .00000538 00000-0 53002-4 0 9996 2 43760 97.6888 90.7994 0013376 189.6276 170.4690 14.96014778115804 OBJECT D 1 43761U 18099D 21016.64132635 .00000192 00000-0 22667-4 0 9997 2 43761 97.6866 90.4679 0013970 192.2072 167.8812 14.95227512115786 STPSAT-5 1 43762U 18099E 21016.54140168 .00000087 00000-0 12856-4 0 9999 2 43762 97.6854 91.2498 0013834 194.2437 165.8396 14.96153425115831 UPPER FREE FLYER 1 43763U 18099F 21016.62684732 .00000962 00000-0 91195-4 0 9994 2 43763 97.6839 90.7945 0012616 189.1167 170.9827 14.95816157115828 POLAR SCOUT KODIAK 1 43764U 18099G 21016.42843041 .00000692 00000-0 65468-4 0 9997 2 43764 97.6865 91.6398 0015537 193.2153 166.8663 14.96746271115840 HAWK-A 1 43765U 18099H 21016.53946989 .00000361 00000-0 37030-4 0 9992 2 43765 97.6807 91.0465 0014127 199.5773 160.4908 14.96210272115835 SPAWAR-CAL-O 1 43766U 18099J 21016.44827493 -.00000165 00000-0 -98624-5 0 9992 2 43766 97.6841 89.4838 0011009 190.0098 170.0904 14.94981260115722 CORVUS BC4 1 43767U 18099K 21016.59369332 .00000317 00000-0 34293-4 0 9990 2 43767 97.6813 89.5304 0011140 190.1392 169.9604 14.94842446115743 AISTECHSAT 2 1 43768U 18099L 21016.42225228 .00000362 00000-0 38500-4 0 9993 2 43768 97.6819 89.3231 0011188 190.0029 170.0971 14.94798128115438 FLOCK 3S-1 1 43769U 18099M 21016.41760267 .00000674 00000-0 66489-4 0 9993 2 43769 97.6813 89.4146 0013861 197.9735 162.0997 14.95151066115736 FOX-1CLIFF (AO-95) 1 43770U 18099N 21016.47438925 .00000741 00000-0 72611-4 0 9993 2 43770 97.6841 89.8943 0014145 200.0276 160.0392 14.95169034115742 OBJECT P 1 43771U 18099P 21016.46120021 .00000373 00000-0 39082-4 0 9994 2 43771 97.6844 89.9293 0014206 200.5406 159.5246 14.95217120115733 RANGE-A 1 43772U 18099Q 21016.46413416 .00000530 00000-0 53109-4 0 9999 2 43772 97.6916 90.6576 0014124 187.4791 172.6221 14.95419581115741 RANGE-B 1 43773U 18099R 21016.47089108 .00000612 00000-0 60941-4 0 9991 2 43773 97.6779 89.3575 0013462 186.6327 173.4718 14.95101179115733 HIBER-2 1 43774U 18099S 21016.45967689 .00000372 00000-0 38805-4 0 9996 2 43774 97.6886 90.4220 0012653 190.3343 169.7620 14.95403852115748 OBJECT T 1 43775U 18099T 21016.34607362 .00000635 00000-0 62865-4 0 9999 2 43775 97.6845 89.9745 0014393 191.4538 168.6357 14.95186729115724 SPAWAR-CAL-R 1 43776U 18099U 21016.16283138 .00000062 00000-0 10840-4 0 9991 2 43776 97.6838 89.7110 0014266 192.2184 167.8693 14.95109670115685 LACMA ENOCH 1 43777U 18099V 21016.45924234 .00010811 00000-0 76714-3 0 9997 2 43777 97.7314 94.7341 0020503 197.2836 162.7694 15.04758307115939 SPAWAR-CAL-OR 1 43778U 18099W 21016.15820081 .00000327 00000-0 34884-4 0 9994 2 43778 97.6743 88.7659 0013571 196.6396 163.4382 14.95253502115287 OBJECT X 1 43779U 18099X 21016.15531645 .00000402 00000-0 41780-4 0 9997 2 43779 97.6842 89.7403 0014296 192.1122 167.9757 14.95143115115686 MOVE-II 1 43780U 18099Y 21016.15819752 .00000735 00000-0 71119-4 0 9995 2 43780 97.6854 89.9600 0013073 197.5742 162.5028 14.95685960115705 VESTA-1 1 43781U 18099Z 21016.45315429 .00000058 00000-0 10365-4 0 9995 2 43781 97.6785 89.6215 0013457 189.6581 170.4383 14.95470844115757 SNUSAT-2 1 43782U 18099AA 21016.46530612 .00000441 00000-0 45058-4 0 9993 2 43782 97.6836 90.1735 0012732 185.7145 174.3933 14.95422346115755 KAZSTSAT 1 43783U 18099AB 21016.15422205 .00000230 00000-0 27017-4 0 9999 2 43783 97.6958 89.3402 0008185 184.9523 175.1617 14.93657108115583 SNUGLITE 1 43784U 18099AC 21016.41883907 .00000692 00000-0 67494-4 0 9994 2 43784 97.6806 89.8949 0014740 194.1814 165.8995 14.95536699115765 ORBWEAVER 2 1 43785U 18099AD 21016.43138937 .00000621 00000-0 60273-4 0 9993 2 43785 97.6836 90.1338 0013658 182.4657 177.6499 14.96085632115349 ITASAT 1 1 43786U 18099AE 21016.42450474 .00000499 00000-0 50205-4 0 9993 2 43786 97.6860 90.4171 0014809 193.5389 166.5437 14.95486364115760 KAZSCISAT-1 1 43787U 18099AF 21016.45843362 .00000440 00000-0 44459-4 0 9999 2 43787 97.6765 89.7051 0014095 191.1564 168.9347 14.95874601115782 FLOCK 3S-3 1 43788U 18099AG 21016.45530311 .00000065 00000-0 11057-4 0 9998 2 43788 97.6863 90.4388 0014690 195.5207 164.5566 14.95569672115769 IRVINE02 1 43789U 18099AH 21016.45118838 .00000038 00000-0 85204-5 0 9991 2 43789 97.6858 90.8666 0015563 191.4785 168.6083 14.96070660115497 EAGLET-I 1 43790U 18099AJ 21016.42933916 .00000315 00000-0 33316-4 0 9996 2 43790 97.6852 90.7705 0012992 197.0668 163.0118 14.95865480115489 CAPELLA-1 1 43791U 18099AK 21016.47541306 .00002449 00000-0 20659-3 0 9995 2 43791 97.7138 93.9867 0013721 191.1433 168.9488 14.99017557115895 ESEO 1 43792U 18099AL 21016.45981729 .00000009 00000-0 59075-5 0 9997 2 43792 97.6815 90.5036 0012993 194.4154 165.6698 14.95674304115548 CSIM-FD 1 43793U 18099AM 21016.22707157 .00000708 00000-0 67581-4 0 9990 2 43793 97.6837 90.4422 0012833 190.7606 169.3343 14.96343924115501 HAWK-B 1 43794U 18099AN 21016.47299556 .00000510 00000-0 50219-4 0 9998 2 43794 97.6811 90.9850 0014713 198.3537 161.7155 14.96210919115818 ORBWEAVER 1 1 43795U 18099AP 21016.46581893 .00000813 00000-0 76183-4 0 9990 2 43795 97.6847 91.0400 0013452 194.4579 165.6260 14.96672228115818 THEA 1 43796U 18099AQ 21016.16181657 .00000448 00000-0 44841-4 0 9992 2 43796 97.6849 90.6826 0015087 178.1830 181.9449 14.96163076114672 SKYSAT-C12 1 43797U 18099AR 21016.44313286 .00001540 00000-0 42665-4 0 9995 2 43797 97.1925 89.6409 0000697 120.2328 239.8987 15.38470172117936 ASTROCAST 0.1 1 43798U 18099AS 21016.46378373 .00000258 00000-0 28105-4 0 9994 2 43798 97.6846 90.9516 0012624 176.6873 183.4434 14.96009478115794 HAWK-C 1 43799U 18099AT 21016.20527554 .00000482 00000-0 47806-4 0 9992 2 43799 97.6810 90.6393 0014615 199.1494 160.9180 14.96208941116523 ICEYE-X2 1 43800U 18099AU 21016.44384699 .00000319 00000-0 33986-4 0 9995 2 43800 97.6853 90.1981 0013720 189.6205 170.4731 14.95421003115758 OBJECT AV 1 43801U 18099AV 21016.45674315 -.00000168 00000-0 -98423-5 0 9996 2 43801 97.6840 90.2233 0013878 185.9450 174.1621 14.95907750115770 SKYSAT-C13 1 43802U 18099AW 21016.43920511 .00001068 00000-0 35255-4 0 9998 2 43802 97.2243 89.3565 0004155 3.3091 356.8178 15.33549937117650 JY1SAT (JO-97) 1 43803U 18099AX 21016.47865601 .00000839 00000-0 80389-4 0 9994 2 43803 97.6820 90.2440 0014890 193.3238 166.7592 14.95698275115775 SUOMI-100 1 43804U 18099AY 21016.14711308 .00000820 00000-0 78709-4 0 9996 2 43804 97.6818 89.8965 0014888 194.7150 165.3640 14.95677873115730 AL-FARABI 2 1 43805U 18099AZ 21016.63645298 .00000952 00000-0 90158-4 0 9993 2 43805 97.6833 90.5312 0014719 192.3766 167.7096 14.95858214115813 OBJECT BA 1 43806U 18099BA 21016.63592633 .00000686 00000-0 66872-4 0 9998 2 43806 97.6814 90.2871 0014381 190.9900 169.1004 14.95575463115490 EUCROPIS 1 43807U 18099BB 21016.29243949 .00000488 00000-0 48812-4 0 9998 2 43807 97.6855 90.4128 0012680 189.1072 170.9921 14.95775145115164 POLAR SCOUT YUKON 1 43808U 18099BC 21016.46913796 .00000584 00000-0 57360-4 0 9997 2 43808 97.6853 90.6862 0012029 198.1374 161.9420 14.95854412115486 CENTAURI-1 1 43809U 18099BD 21016.16066872 .00000340 00000-0 35642-4 0 9998 2 43809 97.6833 90.1837 0014748 195.7247 164.3518 14.95716376115430 OBJECT BE 1 43810U 18099BE 21016.57640552 -.00000104 00000-0 -41641-5 0 9995 2 43810 97.6735 89.6314 0013940 188.2330 171.8663 14.95650916115351 NEXTSAT-1 1 43811U 18099BF 21016.63649759 .00000671 00000-0 65391-4 0 9995 2 43811 97.6835 90.6256 0012561 189.1988 170.9004 14.95669044115369 BLACKSKY GLOBAL 2 1 43812U 18099BG 21016.44293893 -.00000294 00000-0 -21296-4 0 9998 2 43812 97.6811 90.2694 0013164 194.8029 165.2808 14.95627432115369 BRIO 1 43813U 18099BH 21016.45958298 .00000348 00000-0 36009-4 0 9993 2 43813 97.6945 91.6153 0013838 183.2811 176.8322 14.96142554115493 PW-SAT2 1 43814U 18099BJ 21016.21566816 .00124892 00000-0 28405-2 0 9999 2 43814 97.7867 110.2348 0010480 225.2493 134.7901 15.42455356116064 FALCONSAT-6 1 43815U 18099BK 21016.48370221 .00000435 00000-0 44896-4 0 9992 2 43815 97.6863 89.9576 0012960 198.0237 162.0526 14.95038607115433 SPACEBEE-7 1 43816U 18099BL 21016.46000737 .00000327 00000-0 34282-4 0 9991 2 43816 97.6863 90.7730 0013495 181.4498 178.6686 14.95926086115331 SPACEBEE-5 1 43817U 18099BM 21016.44142072 .00000638 00000-0 60636-4 0 9996 2 43817 97.6943 91.6089 0013169 180.7686 179.3518 14.96864158115364 SPACEBEE-6 1 43818U 18099BN 21016.45767089 .00000421 00000-0 42373-4 0 9997 2 43818 97.6885 91.0338 0013453 181.4023 178.7163 14.96212108115495 EXCITE 1 43819U 18099BP 21016.47212171 -.00000019 00000-0 34561-5 0 9992 2 43819 97.6814 90.2768 0013007 194.9316 165.1543 14.95543031115364 SEAHAWK-1 1 43820U 18099BQ 21016.62275085 .00000988 00000-0 93648-4 0 9998 2 43820 97.6794 90.2312 0012433 182.3803 177.7363 14.95771376115209 FLOCK 3S-2 1 43821U 18099BR 21016.14868996 .00000715 00000-0 69182-4 0 9999 2 43821 97.6857 90.2957 0013958 193.7352 166.3491 14.95739370115432 OBJECT BS 1 43822U 18099BS 21016.46497461 .00000364 00000-0 38111-4 0 9998 2 43822 97.6832 90.1538 0015210 189.8819 170.2105 14.95349443109355